Tracking 17142 objects as of 28-May-2015
HD Live streaming from Space Station

GLOBALSTAR M042

Track GLOBALSTAR M042 now!
10-day predictions
GLOBALSTAR M042 is classified as:


NORAD ID: 25679
Int'l Code: 1999-019D
Perigee: 1,589.5 km
Apogee: 1,592.6 km
Inclination: 52.0 °
Period: 117.8 minutes
Semi major axis: 7962 km
RCS: 2.3601 m2 (large)
Launch date: April 15, 1999
Source: Globalstar (GLOB)
Your satellite tracking list
Your tracking list is empty





NASA's NSSDC Master Catalog

Two Line Element Set (TLE):
1 25679U 99019D   15147.97975243 -.00000090  00000-0  19223-4 0  9992
2 25679 052.0028 339.3355 0001967 337.0928 178.1178 12.21978901736249

Source of the keplerian elements: AFSPC

N2YO: 324